{"data":{"norad_id":55384,"intl_designator":"2023-013BF","name":"STARLINK-5537","alt_names":[],"object_type":"PAYLOAD","status":"ACTIVE","operator":null,"country":"US","launch_date":"2023-01-26","launch_site_code":"AFETR","launch_vehicle":null,"mission":null,"orbit_class":"UNKNOWN","rcs_meters":null,"size_class":null,"mass_kg":null,"dimensions":null,"purposes":["comms"],"wikipedia_slug":null,"has_3d_model":false,"image_url":null,"decayed_at":null,"tle_current":{"epoch":"2026-09-20T10:07:05.269728Z","epoch_age_seconds":103430,"freshness":"FRESH","line1":"1 55384U 23013BF  26263.42158877 -.00000187  00000+0  27515-5 0  9996","line2":"2 55384  43.0053 298.4799 0001517 288.8708  71.1979 15.27576438201280","mean_motion":15.27576438,"eccentricity":0.0001517,"inclination_deg":43.0053,"raan_deg":298.4799,"arg_perigee_deg":288.8708,"mean_anomaly_deg":71.1979,"bstar":2.7515e-6,"rev_number":20128,"period_min":94.266968524687,"perigee_km":482.01891842101,"apogee_km":484.10060551859,"semimajor_km":6861.1967619698,"source":"CELESTRAK","updated_at":"2026-09-21T09:00:33.212436Z"}}}